This is the latest recevied weather packets stored in our database for station/object YO6SAY-10. If no packets are shown the sender has not sent any weather packets the latest 1 day(s).
| Time | Temp. | Humidity | Pressure | Rain* | Wind** | Luminosity | Snow |
|---|---|---|---|---|---|---|---|
| 1777847442 | 12.78° C | 43% | 951.2 hPa | - | - | - | - |
| 1777846541 | 12.78° C | 43% | 951.3 hPa | - | - | - | - |
| 1777845641 | 13.33° C | 42% | 951.4 hPa | - | - | - | - |
| 1777844741 | 13.33° C | 42% | 951.6 hPa | - | - | - | - |
| 1777843841 | 13.33° C | 41% | 951.7 hPa | - | - | - | - |
| 1777842941 | 13.33° C | 40% | 951.7 hPa | - | - | - | - |
| 1777842040 | 13.33° C | 40% | 951.6 hPa | - | - | - | - |
| 1777841140 | 13.33° C | 39% | 951.6 hPa | - | - | - | - |
| 1777840239 | 13.33° C | 39% | 951.9 hPa | - | - | - | - |
| 1777839339 | 13.33° C | 39% | 951.9 hPa | - | - | - | - |
| 1777838439 | 13.33° C | 38% | 951.8 hPa | - | - | - | - |
| 1777837539 | 13.33° C | 37% | 951.8 hPa | - | - | - | - |
| 1777836639 | 12.78° C | 36% | 951.7 hPa | - | - | - | - |
| 1777835739 | 12.78° C | 36% | 951.6 hPa | - | - | - | - |
| 1777834839 | 12.78° C | 36% | 951.5 hPa | - | - | - | - |
| 1777833938 | 13.33° C | 35% | 951.5 hPa | - | - | - | - |
| 1777833038 | 13.89° C | 35% | 951.4 hPa | - | - | - | - |
| 1777832138 | 13.89° C | 34% | 951.3 hPa | - | - | - | - |
| 1777831237 | 15° C | 33% | 951.4 hPa | - | - | - | - |
| 1777830337 | 15.56° C | 33% | 951.3 hPa | - | - | - | - |
| 1777829437 | 16.67° C | 31% | 951.4 hPa | - | - | - | - |
| 1777828537 | 18.33° C | 30% | 951.2 hPa | - | - | - | - |
| 1777827636 | 20° C | 29% | 951.3 hPa | - | - | - | - |
| 1777826736 | 21.67° C | 28% | 951.3 hPa | - | - | - | - |
| 1777825836 | 23.33° C | 28% | 951.2 hPa | - | - | - | - |
* Rain since midnight (hover to see other rain measurements)
** Current wind speed in m/s (hover to see current wind gust speed)